STARLINK-32327, 61641

Orbit data source: Space-Track

STARLINK-32327, 61641 is a payload satellite owned by SpaceX/Seattle (US) in LEO that was launched on Wed, 23 Oct 2024 UTC via an FALCON 9 launch vehicle from the Air Force Eastern Test Range (AFETR). Payload-class satellites include a variety of spacecraft equipped with specific instruments for various scientific and technological missions. These include communications satellites like Starlink; space stations such as the ISS; scientific satellites like the Hubble; Earth observation satellites from companies like Planet Labs, Umbra, and HawkEye 360; GPS; miniature CubeSats for education and research; and military/defense satellites.

Loading next visibility...
Identifier
61641, 2024-191W
Orbit
LEO
Country
Flag of USUS
Related business
Manufacturer
SpaceX/Seattle
Mission
Operational spacecraft
Bus & Motor
STARLINK V2M, Unknown motor
Mass
730 kg wet, ~700 kg dry
Launch date (UTC)
2024-10-23 (1 year ago)
Launch vehicle
FALCON 9
Launch site
Air Force Eastern Test Range (AFETR)
Object type
Payload
Rocket body
Debris
Shape & HBR
Unknown shape, 17.7 m
Radar Cross Section
Large (>1 m²)

Expand to show TLE details & history
Last TLE update: 16 hours ago

TLE from 16 hours ago
0 STARLINK-32327
1 61641U 24191W   25353.42913545  .00000806  00000-0  38797-4 0  9998
2 61641  43.0003 247.5968 0000485 288.1585  71.9213 15.27573108 65266
Epoch: 2025-12-19T10:17Z
TLE epoch observation values (Epoch: 2025-12-19T10:17:57.302Z)
Latitude
-0.00009°
Longitude
4.83753°
Altitude
482.742 km
Speed
7.626 km/s
True Right ascension
16h 30m 23s
True Declination
0° 00' 00"
Sunlit
Object was in daylight at epoch
Visualization orbit readout
Latitude
Unknown
Longitude
Unknown
Altitude
Unknown
Speed
Unknown
Apparent Right ascension
Unknown
Apparent Declination
Unknown
Sunlit
N/A
Visualization observer readout
Local Sidereal Time
00:43:22
Azimuth
Unknown
Elevation
Unknown
Doppler factor
Unknown
Orbital elements
Apogee altitude
485.348 km
Perigee altitude
484.682 km
Semi-major axis
6,863.152 km
Eccentricity
0.00005
Inclination
43.0003°
RAAN
247.5968°
Arg. of periapsis
288.1585°
True anomaly
71.92658°
Mean anomaly
71.9213°
Eccentric anomaly
71.92394°
Mean motion
3.81731 °/min
Orbital period
94.31 mins
BSTAR
0.000038797
Loading maneuver chart data...
Computing Atmospheric mass density...
Loading historical data...
Loading historical data...
Loading historical data...
Loading historical data...
Loading historical data...
Loading historical data...
Loading historical data...

Documentation

Showing up to 5 results
|